This is the latest recevied weather packets stored in our database for station/object W1LBM. If no packets are shown the sender has not sent any weather packets the latest 10 day(s).
| Time | Temp. | Humidity | Pressure | Rain* | Wind** | Luminosity | Snow |
|---|---|---|---|---|---|---|---|
| 1777912344 | 20° C | 36% | 1012.6 hPa | 0 mm | - | 722 W/m² | - |
| 1777912040 | 18.89° C | 36% | 1012.4 hPa | 0 mm | - | 712 W/m² | - |
| 1777911737 | 18.89° C | 34% | 1012.6 hPa | 0 mm | - | 712 W/m² | - |
| 1777911434 | 18.89° C | 33% | 1012.7 hPa | 0 mm | - | 707 W/m² | - |
| 1777911130 | 18.89° C | 34% | 1012.8 hPa | 0 mm | - | 707 W/m² | - |
| 1777910828 | 19.44° C | 33% | 1012.7 hPa | 0 mm | - | 705 W/m² | - |
| 1777910525 | 19.44° C | 33% | 1012.8 hPa | 0 mm | - | 705 W/m² | - |
| 1777910221 | 18.89° C | 35% | 1013.1 hPa | 0 mm | - | 714 W/m² | - |
| 1777909918 | 18.89° C | 36% | 1013 hPa | 0 mm | - | 693 W/m² | - |
| 1777909615 | 18.89° C | 34% | 1013.1 hPa | 0 mm | - | 587 W/m² | - |
| 1777909313 | 18.33° C | 34% | 1013.4 hPa | 0 mm | - | 675 W/m² | - |
| 1777909010 | 18.89° C | 36% | 1013 hPa | 0 mm | - | 669 W/m² | - |
| 1777908708 | 18.89° C | 34% | 1013.3 hPa | 0 mm | - | 704 W/m² | - |
| 1777908405 | 18.89° C | 39% | 1013.3 hPa | 0 mm | - | 682 W/m² | - |
| 1777908101 | 18.33° C | 39% | 1013.4 hPa | 0 mm | - | 672 W/m² | - |
| 1777907797 | 18.33° C | 35% | 1013.4 hPa | 0 mm | - | 663 W/m² | - |
| 1777907493 | 17.78° C | 37% | 1013.2 hPa | 0 mm | - | 658 W/m² | - |
| 1777907190 | 17.78° C | 37% | 1013.5 hPa | 0 mm | - | 650 W/m² | - |
| 1777906886 | 17.78° C | 37% | 1013.4 hPa | 0 mm | - | 644 W/m² | - |
| 1777906584 | 17.78° C | 38% | 1013.4 hPa | 0 mm | - | 632 W/m² | - |
| 1777906279 | 17.78° C | 42% | 1013.5 hPa | 0 mm | - | 627 W/m² | - |
| 1777905976 | 17.22° C | 39% | 1013.4 hPa | 0 mm | - | 619 W/m² | - |
| 1777905673 | 17.78° C | 40% | 1013.5 hPa | 0 mm | - | 606 W/m² | - |
| 1777905370 | 17.22° C | 45% | 1013.7 hPa | 0 mm | - | 597 W/m² | - |
| 1777905068 | 17.22° C | 43% | 1013.7 hPa | 0 mm | - | 588 W/m² | - |
* Rain latest hour (hover to see other rain measurements)
** Current wind speed in m/s (hover to see current wind gust speed)